Preview of NWS' New Version of Forecast
This preview is not operational and should not be used for support decisions.

Regional Weather Roundup (RWR)

Issued by National Weather Service (NWS)

                            
000
ASUS45 KBOI 260410
RWRID 

IDAHO REGIONAL WEATHER ROUNDUP
NATIONAL WEATHER SERVICE BOISE ID
1000 PM MDT THU APR 25 2019

NOTE: "FAIR" INDICATES FEW OR NO CLOUDS BELOW 12000 FEET
WITH NO SIGNIFICANT WEATHER AND/OR OBSTRUCTIONS TO VISIBILITY

IDZ012-014-260500-
SOUTHWEST IDAHO

  
CITY           SKY/WX    TMP DP  RH WIND       PRES   REMARKS
BOISE          PTCLDY    64  39  39 SE3       29.94S                  
CALDWELL       PTCLDY    60  40  47 N6        29.94R                  
MOUNTAIN HOME  PTCLDY    60  40  48 CALM      29.95S                  
$$

IDZ016-017-260500-
SOUTHCENTRAL IDAHO

  
CITY           SKY/WX    TMP DP  RH WIND       PRES   REMARKS
BURLEY         CLEAR     52  38  58 CALM      30.02R                  
JEROME         CLEAR     57  32  38 E10       30.01S                  
TWIN FALLS     CLEAR     51  36  56 E8        30.01S                  
$$

IDZ019>023-260500-
SOUTHEAST IDAHO

  
CITY           SKY/WX    TMP DP  RH WIND       PRES   REMARKS
IDAHO FALLS    CLEAR     53  24  32 SE6       30.05R                  
POCATELLO      CLEAR     57  34  41 SW9       30.04S                  
REXBURG        CLEAR     54  19  25 S7        30.05R                  
$$

IDZ006-010-011-018-031-032-260500-
CENTRAL IDAHO MOUNTAINS

  
CITY           SKY/WX    TMP DP  RH WIND       PRES   REMARKS
MCCALL         MOCLDY    49  29  46 N5        30.01S                  
HAILEY         CLEAR     54  36  50 NW8       30.08R                  
STANLEY          N/A     40  27  59 VRB3      30.10R                  
SALMON         MOCLDY    52  32  46 S5        29.99R                  
CHALLIS        CLEAR     58  25  28 CALM      30.02R                  
$$

IDZ002-004-006-007-026-260500-
NORTHERN IDAHO

  
CITY           SKY/WX    TMP DP  RH WIND       PRES   REMARKS
LEWISTON       MOCLDY    59  38  45 S6        29.95S                  
LOWELL           N/A     51  45  79 N3        29.98R                  
COEUR D'ALENE  CLOUDY    53  38  56 E3        29.99S                  
MULLAN PASS    CLOUDY    42  20  41 CALM      30.04S                  
$$